Regional Weather Roundup
Issued by NWS

Home | Current Version | Previous Version | Graphics & Text | Print | Product List | Glossary On
Versions: 1 2 3 4 5 6 7 8 9 10 11 12 13 14 15 16 17 18 19 20 21 22 23 24 25 26 27 28 29 30 31 32 33 34 35 36 37 38 39 40 41 42 43 44 45 46 47 48 49 50
000
ASUS43 KLSX 111457
RWRMO

WEATHER SUMMARY FOR MISSOURI
NATIONAL WEATHER SERVICE SPRINGFIELD MO
900 AM CST SUN DEC 11 2016

NOTE: "FAIR" INDICATES FEW OR NO CLOUDS BELOW 12,000 FEET WITH NO
       SIGNIFICANT WEATHER AND/OR OBSTRUCTIONS TO VISIBILITY.
       CURRENT SKY AND/OR WEATHER CONDITIONS ARE NOT AVAILABLE FOR
       CHILLICOTHE AND FARMINGTON.

MOZ001>031-035>038-043-044-053-054-111600-
...NORTHERN AND WESTERN MISSOURI...

CITY           SKY/WX    TMP DP  RH WIND       PRES   REMARKS
KANSAS CTY INT CLOUDY    44  34  67 S9        29.75S
LEE`S SUMMIT   CLOUDY    45  36  70 S9        29.77S
ST JOSEPH      CLOUDY    39  28  64 CALM      29.77S
CHILLICOTHE      N/A     41  27  57 SE6       29.81S

$$
MOZ066>068-077>081-088>096-101>105-111600-
...SOUTHWEST MISSOURI...

CITY           SKY/WX    TMP DP  RH WIND       PRES   REMARKS
SPRINGFIELD    CLOUDY    45  29  53 S14       29.84R
JOPLIN         CLOUDY    49  41  74 S13       29.83R
BRANSON        CLOUDY    46  32  57 SE10      29.88S

$$
MOZ032>034-039>042-045>050-055>058-069>072-111600-
...CENTRAL MISSOURI...

CITY           SKY/WX    TMP DP  RH WIND       PRES   REMARKS
COLUMBIA       NOT AVBL
JEFFERSON CITY CLOUDY    45  25  45 SE8       29.88F
ROLLA          CLOUDY    43  26  51 S18       29.89S
SEDALIA        CLOUDY    45  29  53 S15       29.83S
WARRENSBURG    CLOUDY    43  32  65 S8        29.80F

$$
MOZ051-052-059>065-111600-
...EAST CENTRAL MISSOURI...

CITY           SKY/WX    TMP DP  RH WIND       PRES   REMARKS
ST LOUIS INTL  CLOUDY    44  18  35 S10       29.95F

$$
MOZ072>076-082>087-097>100-106>115-111600-
...SOUTH CENTRAL AND SOUTHEAST MISSOURI...

CITY           SKY/WX    TMP DP  RH WIND       PRES   REMARKS
CAPE GIRARDEAU CLOUDY    41  22  46 S15       30.07F
POPLAR BLUFF   CLOUDY    42  24  49 S13       30.07S
WEST PLAINS    CLOUDY    43  23  45 S17G24    29.94F

$$



USA.gov is the U.S. government's official web portal to all federal, state and local government web resources and services.